RH
83 74 64 57 51 54 61 70 83 85 79 78 84 90 91 90 88 89 98 100 99 95 95 98 98 100 100 100 100 98 98 99 100 100 99 98 99 100 100 100 98 98 98 97 97 97 96 95 96 96 94 94 93 93 91 89 89 87 84 81 76 74 72 69 68 67 66 65 64 64 64 62 62 61 60 59 58 57 57 57 57 56 55 54 52 52 51 49 47 43 40 38 36 33 30 28 25
86 89 83 71 61 58 58 60 70 73 69 74 85 93 93 92 86 87 95 98 100 98 97 99 99 100 97 94 94 95 96 96 97 97 97 98 99 100 100 100 99 98 95 94 93 91 88 85 84 86 86 85 83 83 80 79 78 74 72 68 65 66 64 61 59 58 56 56 55 54 55 55 56 57 57 56 56 56 55 55 56 56 55 54 52 51 49 46 43 39 35 31 28 25 23 23 20
91 97 98 90 80 70 63 60 67 69 69 75 86 94 95 93 88 90 95 95 99 100 100 100 100 100 97 90 86 87 89 90 92 93 94 95 97 98 97 97 95 93 91 88 83 77 71 65 60 61 63 64 62 59 59 58 55 51 52 51 52 53 52 51 50 48 45 44 44 43 41 41 42 43 46 48 50 51 52 52 53 53 52 51 49 47 45 42 40 35 29 23 20 17 15 16 15
98 99 100 98 94 83 74 72 75 77 81 86 90 92 92 94 94 96 99 97 98 99 100 100 100 100 99 94 87 83 82 83 86 88 90 89 89 89 89 90 89 89 85 76 69 62 56 48 40 37 37 37 37 35 35 36 35 34 35 34 34 36 37 38 38 36 33 30 29 28 27 26 25 24 26 28 32 35 38 41 42 44 44 43 42 40 38 36 34 29 22 17 13 10 9 9 10
99 98 95 95 94 88 84 83 86 89 94 97 97 95 93 97 99 99 100 99 96 95 98 98 99 100 100 98 93 89 85 83 83 84 85 85 84 82 82 82 82 83 76 66 59 50 41 33 25 23 22 22 23 24 25 26 27 28 29 27 24 25 24 23 22 21 20 18 17 15 14 14 13 11 10 10 12 14 17 19 22 24 26 28 28 27 26 24 23 19 15 12 9 7 6 5 6
99 98 96 95 94 91 91 91 95 99 100 100 100 99 98 100 100 100 100 99 95 92 96 97 98 99 100 99 96 95 93 90 88 86 86 87 86 85 84 82 80 76 66 55 46 36 28 24 20 19 19 18 18 20 24 25 26 27 27 24 20 17 14 13 11 10 10 9 8 7 7 7 6 6 5 4 4 4 4 5 5 7 8 9 10 11 11 10 10 9 8 7 6 4 3 3 4
99 99 99 99 99 97 98 98 99 100 100 99 100 100 100 100 100 100 100 100 98 96 98 99 99 100 100 100 99 98 98 98 94 91 89 89 89 89 86 79 74 64 52 42 34 28 23 22 21 20 21 21 21 23 24 24 23 23 22 19 17 15 13 11 9 7 6 5 4 4 4 3 3 3 3 3 3 3 3 3 2 2 2 2 3 3 3 3 3 3 3 3 3 2 2 2 2
100 99 100 99 99 99 100 100 100 100 100 100 100 100 100 100 100 100 100 100 100 100 100 100 100 100 100 100 100 99 99 99 98 95 92 89 85 82 75 65 55 45 37 31 27 24 20 18 17 16 17 19 21 22 22 21 20 19 17 16 15 14 13 11 10 8 7 6 5 4 4 3 3 3 3 3 2 2 2 3 2 2 2 2 2 2 2 2 2 2 2 2 2 2 2 2 2
100 98 100 98 98 99 99 100 97 96 98 99 100 100 100 100 100 99 100 101 100 100 100 100 99 98 98 97 98 97 96 95 95 91 83 75 67 59 51 40 32 26 22 19 16 14 12 11 10 9 10 12 13 14 15 15 15 15 14 14 13 12 11 10 9 8 7 7 6 5 5 4 4 3 3 3 3 3 2 3 2 2 2 2 2 2 2 2 2 2 2 2 2 2 2 2 2
98 97 98 98 99 99 100 100 94 94 97 98 100 100 100 98 97 97 98 99 99 99 94 87 80 76 74 74 74 74 73 70 68 63 53 47 43 36 30 23 19 17 15 13 11 10 9 8 7 6 6 6 7 7 8 8 9 9 10 10 10 9 9 9 8 8 7 7 7 6 6 5 5 5 4 4 4 4 3 3 3 3 3 2 3 2 3 3 2 2 2 2 2 2 2 2 2
99 98 99 98 97 97 99 99 95 97 99 98 100 101 100 99 100 100 100 99 92 75 59 50 41 36 35 34 34 35 36 36 38 37 31 28 26 22 18 17 16 15 14 13 12 12 11 10 9 9 8 8 7 7 7 7 7 7 7 7 7 7 7 7 7 7 7 7 7 7 6 6 6 6 5 5 5 4 4 4 4 3 3 3 3 3 3 3 3 3 3 3 3 2 2 2 2
100 99 100 99 97 96 97 99 98 100 101 100 100 98 96 93 88 82 76 70 56 34 22 22 20 18 17 17 17 17 18 19 21 22 21 20 18 17 15 13 13 12 12 12 11 11 11 11 11 10 9 9 8 8 7 7 7 7 7 7 7 7 7 7 7 7 7 7 6 6 6 6 6 6 6 6 5 5 5 5 5 5 4 4 4 3 3 3 3 3 3 3 3 3 3 3 2
101 100 100 100 99 97 98 99 99 99 99 96 88 75 65 58 49 42 39 35 32 28 27 29 30 31 31 30 29 26 23 22 20 18 18 17 16 16 15 13 12 11 11 11 10 10 10 10 9 9 9 8 8 8 7 7 7 7 7 7 7 7 7 7 7 7 6 6 6 6 6 6 6 6 6 6 6 6 6 6 6 5 5 5 5 5 4 4 4 4 4 3 3 3 3 3 3
94 98 98 96 94 94 93 93 92 90 88 82 74 60 48 42 38 35 37 38 39 40 40 39 39 38 36 34 31 28 26 25 24 22 21 20 19 18 16 15 14 13 13 12 12 11 11 10 10 9 9 9 8 8 7 7 7 7 7 6 6 6 6 6 6 6 6 6 5 5 5 5 5 5 6 5 6 5 6 6 6 6 6 6 6 6 6 6 6 5 5 5 5 4 4 4 3
65 72 80 79 77 76 76 76 76 75 71 67 64 58 53 50 48 46 45 45 45 43 42 40 38 35 33 31 29 27 26 24 23 22 20 19 19 18 17 17 16 15 14 13 12 11 10 10 9 9 9 8 8 8 7 7 6 6 6 6 6 5 5 5 5 5 5 5 5 5 5 5 5 5 5 5 5 5 5 6 6 6 6 6 6 6 6 6 6 6 6 6 6 6 5 5 5
42 40 44 45 44 45 47 49 49 49 49 48 46 43 41 38 36 35 33 31 30 30 31 32 32 32 31 30 29 28 27 25 23 21 19 17 15 14 13 12 11 11 10 10 10 9 9 9 9 8 8 8 7 7 6 6 6 6 5 5 5 5 5 5 5 5 5 5 5 5 5 5 5 5 5 5 5 5 5 5 5 6 6 6 6 6 6 6 6 6 6 7 6 7 6 6 6
46 41 36 30 26 23 23 24 24 23 24 24 23 22 21 20 19 17 16 15 14 13 14 15 16 17 17 17 17 16 15 15 14 13 12 11 10 9 8 7 7 7 7 7 7 7 7 7 7 8 7 7 7 8 8 8 8 8 9 9 8 8 8 8 8 8 7 7 7 7 7 7 7 7 7 6 6 6 6 6 6 6 6 6 6 6 6 6 6 6 6 6 6 7 7 7 7
29 35 37 36 33 29 26 23 20 18 16 14 13 12 11 11 11 10 10 10 9 8 7 7 7 7 7 7 7 7 7 7 7 7 7 7 7 7 7 6 6 6 6 7 8 8 9 10 11 13 14 16 17 18 20 21 22 23 23 23 23 23 22 21 20 19 18 16 15 13 13 11 11 10 9 9 9 8 8 8 8 7 8 7 7 7 7 7 6 6 6 6 6 6 7 7 7
9 12 16 20 23 25 25 23 21 20 18 17 15 13 11 10 8 7 7 7 7 7 6 6 6 6 6 6 6 6 6 6 7 6 6 7 8 9 10 13 15 17 20 22 24 26 28 30 31 32 33 35 36 36 37 37 37 37 37 36 35 35 34 33 33 32 31 30 29 28 27 25 24 23 21 20 18 16 15 14 13 12 11 10 10 10 9 9 8 8 8 8 8 7 7 7 7
6 6 6 7 9 11 13 13 14 14 14 14 13 12 10 9 8 8 7 6 6 6 6 6 6 6 7 8 9 9 11 12 14 16 19 22 26 30 34 38 42 44 46 47 46 45 45 44 43 42 40 40 39 38 37 36 36 35 35 35 35 35 35 35 35 36 36 36 36 36 36 36 36 36 36 35 34 33 32 30 29 27 24 22 20 18 17 15 14 13 12 11 10 10 9 9 9
8 8 7 7 6 6 6 7 7 7 7 7 7 7 7 7 7 7 7 8 10 12 14 16 19 22 24 28 32 34 36 39 41 44 46 48 50 51 52 52 52 50 48 45 42 40 38 37 36 36 35 36 37 37 38 39 40 41 42 43 44 45 45 46 47 47 47 47 47 47 47 47 47 48 48 48 48 48 48 48 47 46 45 43 40 38 35 33 30 27 25 22 20 17 15 14 12
31 28 26 23 21 19 17 17 16 15 15 14 15 15 18 20 22 26 29 33 37 40 43 45 48 50 52 54 55 55 55 55 54 53 52 50 48 46 44 42 40 38 37 36 36 37 39 41 43 45 47 48 49 50 51 51 52 52 51 51 50 50 50 49 49 49 48 48 48 48 48 48 48 49 49 50 51 51 52 52 53 53 53 53 53 53 52 51 49 47 45 43 40 36 33 29 26
58 57 55 54 51 49 48 48 46 45 44 44 45 46 49 51 53 56 57 57 57 56 56 55 54 53 52 50 49 48 46 45 43 42 40 39 38 39 39 40 41 43 44 46 47 49 50 50 49 48 47 46 44 42 40 39 37 36 34 33 32 31 30 29 29 29 29 28 28 29 29 29 30 31 32 33 34 36 37 38 40 41 42 44 45 46 47 49 50 50 51 52 52 51 50 48 46
69 69 69 69 68 68 67 68 67 66 66 65 64 64 64 63 61 59 56 53 51 50 49 48 47 46 46 44 43 41 39 38 38 39 41 43 46 47 49 49 49 47 45 44 42 40 36 33 30 27 25 23 22 20 19 18 18 18 17 17 17 17 17 17 17 17 17 18 18 18 18 19 19 19 20 20 21 22 23 24 24 26 27 28 29 31 32 34 35 37 38 40 42 44 45 47 49
68 68 68 68 67 68 68 67 67 66 65 63 62 60 58 57 55 52 51 49 49 49 48 48 48 47 46 45 44 44 44 45 46 47 48 47 46 42 39 36 32 28 25 23 21 19 17 15 14 13 12 12 12 12 12 12 12 13 13 14 14 14 14 15 15 15 16 16 16 17 17 17 17 17 18 18 18 19 19 19 20 20 21 21 22 23 23 24 25 26 27 28 29 30 32 34 36
65 65 65 65 64 64 65 64 64 64 63 62 61 59 58 58 56 54 52 50 50 50 50 50 50 49 49 49 48 47 45 43 39 35 31 27 24 21 18 16 14 13 12 12 11 11 11 10 10 10 10 10 10 10 10 10 10 11 11 11 11 11 11 11 11 12 12 12 12 12 13 13 13 13 14 14 14 15 16 16 17 17 18 19 19 20 20 21 22 23 23 24 25 25 26 26 27
61 63 64 64 64 65 65 66 66 66 65 64 62 60 58 56 54 51 49 49 49 49 49 49 47 45 42 39 34 30 25 21 18 15 13 12 11 11 11 10 10 10 9 9 9 9 9 8 8 8 8 8 7 7 7 7 7 7 7 6 6 6 6 6 6 6 6 6 6 6 6 6 7 7 7 8 8 9 10 10 11 12 12 13 14 15 16 17 17 18 20 20 21 22 23 24 24
62 64 64 63 64 66 66 66 66 65 62 60 58 55 53 53 51 49 48 46 44 41 38 33 29 25 21 18 14 12 11 10 9 9 9 8 8 8 8 8 7 7 7 6 6 6 6 5 5 5 4 4 4 3 3 3 3 3 3 3 3 3 2 3 2 2 2 2 3 3 3 3 3 3 3 4 4 4 4 5 5 6 6 7 7 8 9 10 10 11 12 13 15 16 17 18 19
65 66 64 63 63 64 64 63 62 60 58 55 52 46 45 46 42 37 33 28 24 20 17 14 12 10 9 8 8 7 7 6 6 6 6 6 6 6 5 5 4 4 4 3 3 3 2 2 2 2 2 2 2 2 2 2 2 2 2 2 2 2 2 2 2 2 2 2 2 2 2 2 2 2 2 3 3 3 3 3 3 3 3 3 4 4 4 4 5 5 6 7 7 8 9 10 12
60 60 57 57 56 56 56 54 51 48 44 40 34 27 25 25 20 17 15 12 11 9 8 8 7 7 6 5 5 5 5 4 4 4 4 4 3 3 2 2 2 2 2 2 2 2 2 2 1 2 1 2 2 2 2 2 2 2 2 2 2 3 2 3 3 3 3 3 3 3 3 4 3 4 4 4 4 4 4 4 4 4 4 4 4 4 4 4 4 4 4 4 4 4 5 5 5
42 41 39 39 39 36 34 30 27 24 21 18 15 12 11 12 10 9 9 7 7 6 5 5 4 4 4 4 4 3 3 2 2 2 2 2 2 2 2 2 2 1 2 1 2 2 2 2 2 2 2 2 2 2 2 2 3 3 3 3 3 3 3 3 4 4 4 4 4 4 5 5 5 5 5 5 5 5 5 5 5 6 5 6 5 5 5 5 5 5 5 5 5 5 4 4 4
21 20 19 19 18 16 15 13 13 12 11 11 10 9 8 8 7 6 6 5 5 4 4 4 3 3 3 3 3 2 2 2 2 2 1 2 1 2 1 1 2 2 2 2 2 2 2 2 2 2 2 3 3 3 3 3 3 3 3 4 4 4 4 4 5 5 5 5 5 5 6 6 6 6 6 6 6 6 7 7 7 7 7 7 7 7 7 7 7 7 7 6 6 6 6 6 6
12 11 11 12 12 12 12 11 10 9 8 8 7 6 6 6 5 4 4 3 3 3 3 3 2 3 2 2 2 2 2 1 2 2 2 2 2 2 2 2 2 2 2 2 2 3 2 3 3 3 3 3 4 4 4 4 4 5 5 5 5 5 5 6 6 6 6 6 7 7 7 7 7 7 7 7 8 8 8 8 8 8 8 8 8 8 8 8 8 8 8 8 8 8 8 7 7
11 11 11 11 10 9 8 7 7 7 6 6 5 5 4 4 4 3 3 3 3 3 3 3 2 2 2 2 2 2 2 2 2 2 2 2 2 2 2 2 3 3 3 3 3 4 4 4 4 4 5 5 5 5 5 6 6 6 6 7 7 7 7 7 8 8 8 8 8 9 9 9 9 9 9 9 9 9 9 9 9 9 10 10 10 10 10 10 10 9 9 9 9 9 9 9 8
8 8 7 7 7 6 6 6 6 6 5 4 4 4 3 3 3 3 3 3 3 3 3 2 2 2 2 2 2 2 2 2 2 3 3 3 3 3 3 4 4 4 4 4 5 5 5 6 6 6 6 6 7 7 7 8 8 9 9 10 10 10 11 11 11 11 11 12 12 12 12 12 12 12 12 12 12 12 11 11 11 11 11 11 11 11 11 11 11 11 11 11 11 11 10 10 10
6 6 6 6 6 6 6 5 4 4 3 3 3 4 4 4 4 4 4 3 3 3 3 3 3 3 3 3 3 3 3 3 3 3 3 4 4 4 4 4 5 5 5 6 6 6 7 7 7 8 8 8 9 9 10 10 11 11 12 13 13 14 14 15 15 15 16 16 16 17 17 17 17 17 17 17 17 16 16 15 15 15 14 14 14 13 13 13 13 12 13 12 12 12 12 12 11
6 6 6 6 5 4 4 3 3 3 3 4 4 4 4 4 4 4 4 4 4 3 3 3 3 3 4 4 4 4 4 4 4 4 4 5 5 5 6 6 6 6 7 7 7 8 8 9 9 10 10 11 12 12 13 13 14 15 16 17 18 19 19 20 21 21 22 22 23 23 23 23 22 22 22 22 22 22 22 21 21 20 20 19 18 18 17 16 15 15 14 14 14 14 14 14 13
6 5 5 4 3 3 3 3 4 4 5 5 5 5 5 4 4 4 4 4 4 4 4 4 4 4 4 4 4 4 4 5 5 5 5 6 6 6 7 7 7 8 8 9 9 10 10 11 12 12 13 14 15 16 17 18 19 20 21 23 24 25 25 26 27 27 28 29 29 30 30 30 29 29 29 29 29 28 28 28 27 27 26 26 25 23 22 20 19 18 18 17 17 17 17 16 16
4 4 3 3 3 4 4 5 5 5 5 5 5 5 5 5 5 4 4 4 4 5 5 5 5 5 5 5 5 5 5 6 6 6 7 7 7 8 8 9 9 10 11 11 12 13 13 14 15 16 17 19 20 21 22 23 24 25 27 28 29 29 30 31 31 32 32 33 33 34 34 35 35 35 35 34 35 35 35 35 34 33 32 32 31 30 28 26 24 22 21 21 20 20 20 19 18
3 3 4 4 4 5 5 5 6 6 6 6 6 5 5 5 5 5 5 5 5 5 5 5 5 5 6 6 6 6 7 7 7 8 8 8 9 10 10 11 12 12 13 14 15 16 17 19 19 20 22 24 25 26 27 28 29 30 30 31 31 31 32 33 33 34 35 35 36 36 37 38 39 39 39 39 40 40 40 40 40 39 38 37 37 36 35 32 29 27 25 24 24 23 22 21 21
4 4 5 5 6 6 6 6 7 6 6 6 6 6 5 6 5 6 6 6 6 6 6 6 6 6 7 7 7 8 8 8 9 9 9 10 11 12 13 14 15 16 17 18 19 20 22 23 23 25 27 28 29 30 31 31 32 32 32 33 33 34 35 36 37 38 38 39 41 42 42 43 43 44 44 45 45 46 46 47 46 45 44 42 42 41 40 38 34 31 29 28 26 25 24 24 23
5 6 6 6 7 7 7 7 7 7 7 6 7 6 6 6 7 6 6 7 7 7 7 8 8 8 8 9 9 9 10 10 11 11 12 13 14 15 15 17 18 19 21 22 24 26 26 27 28 29 30 31 32 33 34 35 35 37 37 38 40 41 42 43 45 46 46 47 48 49 49 50 50 49 50 51 52 53 53 54 53 52 50 48 46 45 44 41 38 35 33 30 28 27 27 26 25
7 7 8 8 8 8 8 8 7 8 7 7 7 7 7 8 8 8 8 8 9 9 9 9 10 10 10 11 11 12 12 13 13 14 15 16 18 18 19 21 21 23 25 26 28 29 29 30 31 32 34 35 36 37 39 40 42 44 45 47 48 49 50 51 53 53 54 55 55 56 57 58 58 57 57 58 59 59 59 60 60 58 56 53 51 48 46 43 40 38 36 33 31 30 30 29 27
8 9 9 9 9 9 9 8 8 8 8 8 9 8 8 9 10 10 10 11 11 11 11 12 12 13 13 14 14 15 15 16 17 17 19 20 21 23 24 24 25 27 29 29 31 31 32 34 35 37 38 39 41 43 44 46 48 50 51 52 53 55 56 57 58 59 60 61 62 63 64 65 66 65 66 66 65 65 65 66 66 63 60 57 54 50 47 44 42 41 38 35 34 33 32 31 29
10 10 10 10 10 10 10 10 10 9 10 10 10 10 10 11 12 13 13 13 14 14 15 15 15 16 16 17 17 18 18 19 21 21 22 24 24 26 27 28 30 31 32 33 34 35 36 38 39 41 43 44 46 47 48 50 51 52 54 55 56 58 60 61 62 65 67 68 70 72 73 73 74 74 74 73 72 71 71 72 71 68 64 61 57 52 48 46 45 43 41 38 37 36 35 33 31
11 11 11 11 11 11 11 11 11 11 12 12 12 13 13 13 16 17 16 17 18 19 19 19 19 19 20 20 20 21 22 23 25 26 27 28 29 29 30 32 34 35 36 37 38 38 39 40 42 44 45 46 47 48 49 50 51 53 54 56 59 61 64 66 69 73 75 76 78 81 82 82 82 82 82 82 81 79 78 78 75 71 68 63 58 53 51 49 47 46 44 42 40 39 37 35 33
13 13 13 13 13 13 13 13 14 14 15 15 15 16 16 15 18 20 20 21 22 22 22 22 22 22 23 24 24 24 24 25 27 28 31 32 32 33 34 36 37 38 39 40 40 40 40 41 43 44 45 46 47 48 49 50 52 53 56 58 61 64 68 73 76 80 82 84 87 89 90 91 91 91 91 89 87 85 84 81 77 73 69 64 59 56 54 52 51 49 47 45 43 41 39 36 34
15 15 15 16 16 16 16 17 17 17 17 18 17 18 18 18 20 23 25 26 25 22 23 24 23 24 25 24 24 25 26 28 29 31 33 34 34 35 37 38 39 39 40 40 40 40 40 42 43 44 45 46 48 49 50 52 54 56 59 61 64 69 75 80 83 85 89 92 94 96 97 97 97 97 95 92 91 89 86 82 78 73 69 65 62 60 57 55 54 53 50 47 45 42 40 38 36
18 18 18 18 18 18 19 19 18 18 18 18 19 19 20 21 23 28 31 29 27 24 24 24 24 24 25 25 27 29 31 33 34 36 37 38 39 40 41 41 40 40 40 41 41 41 42 43 43 44 46 48 51 52 54 55 57 60 62 64 70 78 83 86 88 91 96 99 100 100 100 99 99 98 96 93 92 90 86 83 78 73 70 68 67 64 60 59 58 56 53 49 46 44 42 40 38
21 21 21 20 20 19 18 18 18 16 16 17 20 19 19 23 28 34 37 34 31 30 26 24 24 26 28 31 34 36 39 40 42 44 46 49 51 52 53 52 51 50 49 48 47 47 47 46 47 47 49 52 55 56 58 59 61 64 67 73 81 87 90 91 94 98 103 104 103 102 101 101 101 99 97 94 93 91 88 84 79 76 74 73 70 67 64 63 62 58 55 52 49 47 44 42 40
22 22 21 22 23 20 19 19 19 17 17 19 23 21 21 27 34 39 41 37 32 29 28 27 30 33 35 39 41 43 46 49 52 55 58 61 63 65 66 65 65 65 64 62 59 58 56 54 53 53 55 58 60 61 63 64 67 71 78 86 91 94 95 96 99 102 105 105 103 100 101 102 101 99 97 95 93 92 89 84 80 78 78 77 73 69 67 66 64 61 58 54 52 50 47 45 43
22 22 22 24 23 21 21 22 22 23 23 24 27 26 25 32 38 38 36 35 33 32 34 35 36 37 39 44 48 51 55 59 62 64 66 68 70 70 71 72 72 72 71 70 69 67 66 64 64 65 67 68 68 69 69 72 77 84 90 95 96 98 98 100 103 104 105 105 102 102 104 103 101 100 97 95 95 93 90 85 83 82 83 80 75 71 69 68 66 64 60 57 55 52 50 48 46
22 23 24 23 22 23 24 24 25 28 27 27 29 27 26 31 35 35 35 38 40 38 37 35 34 36 39 44 51 57 61 63 65 67 70 73 74 75 76 77 78 79 79 78 77 77 76 76 77 78 77 76 77 78 80 84 90 95 97 99 100 101 101 103 104 105 105 104 103 104 105 104 103 102 99 98 98 95 91 88 86 87 87 83 78 74 73 72 70 66 62 60 58 55 53 51 49
24 26 26 25 25 26 27 26 28 30 28 29 31 28 29 32 31 35 40 39 38 36 33 34 36 38 40 43 47 52 55 57 60 65 71 75 78 79 80 81 82 84 85 86 87 88 87 87 86 85 83 84 87 89 92 96 98 99 100 101 102 102 103 104 104 103 104 103 103 104 104 102 101 99 98 99 98 95 92 88 88 90 89 83 79 76 76 75 72 67 64 63 60 58 56 54 52
31 31 31 31 31 31 31 30 31 33 31 31 32 30 35 39 35 38 42 37 33 34 35 39 42 43 43 43 44 45 47 50 54 61 67 71 74 74 75 77 80 84 88 90 93 94 93 93 92 91 92 95 97 99 99 100 100 101 101 102 102 102 102 101 101 102 102 102 103 102 100 99 97 97 98 99 96 93 90 89 90 92 88 84 81 80 80 79 74 69 67 66 64 62 59 57 54
38 39 39 38 38 37 35 34 35 37 36 36 34 28 35 45 41 40 44 40 36 35 37 43 46 46 48 49 49 49 48 50 54 58 62 66 69 71 73 76 80 85 89 92 94 95 95 97 97 98 100 101 102 102 102 102 102 102 101 101 101 100 98 99 101 102 102 101 101 98 97 98 97 98 99 97 95 92 90 91 93 93 89 86 85 85 85 82 75 73 72 70 69 66 63 60 57
35 39 42 43 43 42 38 34 37 40 39 42 39 26 31 46 45 42 48 47 42 39 39 43 47 50 54 57 58 59 58 59 60 60 61 62 68 74 79 82 84 85 87 89 92 94 96 99 100 101 102 102 103 104 103 103 102 101 100 100 99 97 98 101 103 102 101 100 99 97 98 100 100 100 99 97 95 92 92 95 95 93 91 89 89 90 88 82 78 77 76 75 73 69 66 63 61
23 27 31 34 38 40 38 32 33 37 37 43 44 29 29 45 45 43 52 52 46 44 42 43 46 51 57 62 66 68 69 70 70 67 65 62 66 74 80 83 83 82 84 87 91 94 96 98 100 100 100 101 104 105 104 103 102 100 98 98 97 98 101 103 102 101 100 100 100 102 103 102 100 101 101 98 95 94 97 99 97 95 93 93 93 92 88 83 82 83 81 78 75 71 68 65 64
Wind_Speed
21 21 21 22 24 24 24 24 22 22 22 22 22 22 22 22 23 22 20 20 17 16 17 17 14 14 15 15 19 21 20 20 20 22 24 25 24 23 23 23 23 23 23 23 24 24 25 26 26 26 27 27 27 28 30 30 29 30 30 29 30 32 33 34 34 34 34 35 36 37 38 39 38 38 39 39 39 40 40 39 39 40 40 40 40 40 40 41 42 42 42 42 41 41 40 41 40
21 20 21 23 23 23 24 25 24 24 23 22 22 22 23 23 23 22 20 19 18 18 19 20 18 17 17 16 18 20 21 21 21 22 23 23 24 25 25 24 25 24 24 25 24 24 25 25 25 26 27 27 27 28 29 30 30 29 29 30 32 34 35 35 35 36 36 36 37 38 39 40 40 40 40 41 41 41 41 41 41 42 42 42 42 42 42 42 43 43 44 44 43 42 42 42 41
19 18 21 23 23 24 25 25 25 24 23 22 22 22 23 23 23 21 20 20 19 19 21 23 22 20 20 21 21 22 23 23 24 24 23 23 23 24 24 25 25 25 25 25 24 24 24 24 24 25 26 26 26 27 28 29 29 29 30 31 33 34 36 36 37 37 37 38 38 39 40 41 41 41 42 42 42 42 43 43 43 43 44 44 44 44 44 44 44 44 45 45 45 44 43 43 43
15 17 21 23 24 25 25 24 24 24 22 22 22 22 23 23 23 21 20 22 21 21 22 23 25 25 22 22 23 24 25 26 26 25 24 24 24 24 25 25 25 25 25 25 24 24 24 24 23 24 24 25 25 26 28 29 30 31 32 32 33 35 36 37 38 39 39 39 39 40 40 41 42 42 42 43 43 43 44 44 45 45 45 46 46 46 45 45 45 45 45 45 46 45 44 44 44
16 18 18 20 22 23 23 22 22 21 21 21 21 22 23 21 21 21 21 22 23 22 22 23 25 26 25 23 23 24 25 26 26 26 26 26 26 26 26 26 26 26 26 25 25 24 24 23 23 23 24 25 26 27 29 30 32 33 34 35 35 36 37 38 38 39 39 39 40 40 41 41 42 42 43 43 43 44 44 45 45 46 46 46 47 47 46 46 46 46 46 46 46 46 46 45 45
17 18 17 17 18 18 19 19 18 19 19 20 21 21 21 20 20 20 21 22 23 23 23 25 26 27 27 26 25 26 26 25 25 26 26 26 26 26 26 27 27 26 25 24 24 24 24 24 24 24 25 26 27 29 31 33 34 35 36 37 36 36 37 38 38 39 40 40 41 41 41 42 42 43 44 44 44 44 44 45 45 46 46 46 46 47 47 47 47 47 46 46 47 47 47 46 46
14 17 19 20 20 20 21 20 19 20 20 20 21 21 20 20 19 19 19 21 22 23 24 25 26 26 26 24 24 25 25 24 24 25 25 25 25 24 24 24 24 24 24 24 25 25 25 26 26 27 28 29 31 33 35 35 36 36 37 37 37 37 38 39 39 40 40 41 41 42 42 42 43 44 44 45 45 46 46 46 46 47 47 47 47 47 47 47 47 47 47 47 47 47 48 48 47
10 13 14 14 15 16 18 20 20 19 19 19 20 19 17 16 16 16 17 18 18 19 21 22 22 22 22 22 21 21 22 23 23 23 23 23 23 23 23 23 23 23 24 26 27 27 28 28 29 30 32 33 34 35 36 36 37 37 37 38 38 39 39 39 40 41 41 42 43 43 43 43 44 44 44 45 45 46 46 47 47 48 48 48 48 47 48 48 48 48 48 48 48 48 48 49 49
10 11 10 11 10 10 11 13 14 13 13 14 15 15 14 13 14 14 14 15 17 18 19 20 20 21 22 22 23 22 22 23 23 22 22 22 23 23 23 23 24 25 26 27 28 29 30 31 32 33 34 35 35 36 37 37 37 38 39 39 39 39 40 40 41 41 42 42 43 43 44 44 44 44 45 45 45 46 46 47 47 48 48 49 49 48 49 49 49 49 49 49 49 49 50 50 50
12 14 13 13 14 13 13 13 13 11 12 14 14 15 15 14 14 14 15 17 20 20 20 20 21 21 22 23 23 23 22 22 23 23 22 23 23 23 24 25 26 27 27 28 30 31 32 33 33 35 35 35 36 37 37 38 38 39 39 40 40 40 40 41 41 42 42 43 43 44 44 44 45 45 45 45 46 46 47 47 48 48 49 49 49 49 49 49 49 50 50 50 50 51 51 51 51
16 18 17 17 17 17 16 17 15 13 16 17 17 17 17 16 16 17 18 20 21 20 19 19 20 20 21 21 22 23 22 22 23 23 23 24 24 25 25 26 28 29 30 31 32 33 34 35 36 36 37 37 37 38 38 39 39 40 40 40 41 41 41 42 42 43 43 44 44 45 45 46 46 46 47 47 47 47 48 48 49 49 49 49 50 50 50 50 50 50 51 51 51 52 52 52 52
18 20 20 20 20 19 18 19 18 17 19 19 19 18 18 17 17 17 18 18 18 18 18 18 19 20 20 20 21 22 22 23 24 25 25 25 26 27 28 28 29 31 32 33 33 35 35 36 37 37 37 37 38 38 39 40 40 41 41 42 42 43 43 43 44 45 45 46 47 47 48 48 48 49 49 49 49 50 50 50 51 51 51 51 51 51 51 51 51 51 51 51 52 52 53 53 54
20 20 21 21 21 20 19 19 19 20 20 19 18 17 16 15 15 15 16 17 18 19 19 20 21 22 22 22 23 24 25 25 26 27 27 28 29 29 30 31 31 33 34 35 35 36 36 37 37 37 38 39 39 40 40 41 42 42 43 43 44 44 45 46 46 47 48 48 49 49 50 50 51 51 51 52 52 52 52 52 53 53 53 54 54 54 53 53 53 53 53 53 53 53 53 54 54
19 19 20 20 19 18 17 16 17 19 19 18 17 16 16 15 16 17 18 19 20 20 21 22 23 24 24 24 25 26 27 28 28 29 30 31 32 32 32 33 33 34 35 36 37 37 37 38 38 39 40 40 41 42 42 43 43 44 44 45 46 46 47 48 48 49 50 50 51 52 52 53 53 53 54 54 54 54 55 54 55 55 55 56 56 56 56 56 55 55 55 55 55 55 55 55 55
14 15 16 15 15 15 14 14 14 15 15 15 16 16 17 17 18 19 20 21 21 22 23 24 24 25 25 26 27 28 29 30 31 31 32 33 34 34 34 35 35 36 36 37 38 39 39 39 40 41 41 42 42 43 44 44 45 46 46 47 48 48 49 50 50 51 51 52 53 53 54 54 55 56 56 56 57 57 57 57 57 57 58 58 58 58 58 58 58 58 58 57 57 57 57 57 57
12 12 12 12 12 11 11 11 12 12 13 15 16 16 17 18 20 20 21 22 23 23 24 25 26 27 27 28 29 30 32 32 33 33 33 34 35 35 36 36 37 37 38 38 39 40 41 41 41 42 43 43 43 44 45 46 47 47 48 49 49 50 51 51 52 53 53 54 55 55 56 56 57 58 58 59 59 59 60 60 60 60 60 60 61 61 61 61 61 61 61 61 61 60 60 60 60
13 13 12 12 12 11 11 12 12 13 14 16 17 19 20 20 21 22 22 23 24 25 26 27 27 28 29 30 31 31 33 33 34 34 34 35 36 37 37 38 38 39 39 40 41 41 42 43 43 44 44 45 45 46 46 47 48 48 49 50 51 52 52 53 54 54 55 55 56 57 57 58 59 59 60 61 61 62 62 63 63 63 63 63 63 64 64 64 64 64 64 64 64 64 64 64 63
14 14 14 14 14 13 14 14 14 16 18 19 20 22 22 23 23 23 24 25 26 27 27 28 28 29 30 31 32 32 33 33 34 35 36 36 37 38 38 39 40 40 41 42 42 43 43 44 45 45 46 46 47 47 48 49 49 50 50 51 52 53 54 54 55 56 56 57 57 58 59 59 60 61 61 62 62 63 64 64 65 65 66 66 66 66 66 66 66 67 67 67 67 67 67 67 67
16 16 16 16 16 16 16 16 17 18 21 22 23 24 25 25 25 25 25 26 26 27 28 28 29 30 30 31 32 33 34 34 35 36 37 38 38 39 40 40 41 42 42 43 44 44 45 46 46 47 47 48 49 49 50 51 51 52 53 53 54 54 55 56 57 57 58 59 59 60 60 61 61 62 63 63 64 64 65 66 66 67 67 68 68 68 68 68 69 69 69 69 69 69 69 69 69
17 18 18 18 18 19 19 19 20 21 22 24 25 26 26 26 26 26 27 27 28 28 29 29 30 31 31 32 33 34 35 35 36 37 38 39 40 41 41 42 43 44 44 45 45 46 47 47 48 48 49 50 50 51 52 53 53 54 55 55 56 57 57 58 59 59 60 61 62 62 63 64 64 65 66 66 67 67 68 68 69 69 70 70 70 71 71 71 71 71 71 71 71 71 71 71 71
19 19 20 20 21 21 21 22 22 23 24 25 25 26 26 27 27 27 28 28 29 29 30 31 31 32 33 34 35 36 36 37 38 39 40 41 42 43 44 44 45 46 46 47 47 47 48 48 49 50 50 51 52 53 54 54 55 56 57 58 58 59 60 61 61 62 63 64 64 65 66 67 67 68 69 69 70 70 71 71 72 72 73 73 74 74 74 74 75 75 75 75 75 74 74 74 74
20 21 21 22 23 23 23 24 24 25 25 26 26 26 27 27 28 28 29 30 30 31 32 32 33 34 35 36 37 37 38 39 40 41 41 42 43 44 44 45 46 46 47 48 48 49 50 50 51 52 53 53 54 55 56 56 57 58 58 59 60 61 62 62 63 63 64 65 65 66 67 67 68 69 70 70 71 72 72 73 73 74 75 75 76 76 77 77 77 78 78 78 78 78 78 78 78
22 22 23 23 24 24 25 25 26 26 27 27 27 27 28 29 29 30 31 31 32 33 34 34 35 36 36 37 37 38 39 39 40 41 42 43 43 44 45 46 46 47 48 49 50 51 51 52 53 54 54 55 55 56 57 57 58 59 59 60 61 61 62 63 63 64 65 65 66 67 67 68 68 69 70 70 71 72 72 73 74 74 75 76 76 77 77 78 78 79 79 79 80 80 81 81 81
25 24 25 25 26 27 27 27 28 28 28 29 29 29 29 30 31 31 32 32 33 34 35 36 36 37 37 38 38 39 39 40 40 41 42 43 44 45 46 46 47 48 49 49 50 51 52 53 53 54 55 56 56 57 58 58 59 60 61 61 62 63 63 64 65 65 66 67 67 68 68 69 69 70 70 71 71 72 73 73 74 74 75 75 76 77 77 78 78 79 79 79 80 80 81 81 82
26 27 27 28 28 28 29 29 29 29 29 29 29 30 30 31 32 32 32 32 33 35 35 36 37 37 38 38 39 39 40 41 41 42 43 44 45 45 46 47 47 48 49 50 51 51 52 53 54 55 56 57 58 59 60 61 61 62 63 63 64 65 65 66 67 67 68 68 69 69 70 70 71 71 72 72 73 73 74 74 75 75 75 76 76 77 78 78 79 79 80 80 80 81 81 81 82
27 27 28 28 29 29 29 29 28 29 29 29 30 30 31 32 32 33 33 33 34 35 36 36 37 38 38 39 39 40 40 41 42 42 43 44 44 45 46 47 48 49 50 51 52 53 54 55 56 57 58 59 60 60 61 62 63 64 65 65 66 67 67 68 68 69 69 70 70 71 71 72 72 73 73 74 74 75 75 76 76 77 77 77 78 78 79 79 79 80 80 81 81 82 82 82 82
27 28 28 29 29 29 29 29 29 29 29 30 30 31 31 32 32 33 33 34 35 35 36 36 37 37 38 38 39 40 40 41 42 43 44 44 45 46 47 48 49 50 51 52 53 54 55 56 57 58 59 60 61 62 63 63 64 64 65 66 66 66 67 67 67 68 68 69 69 70 70 71 71 71 72 72 73 73 74 75 75 76 77 77 78 78 79 80 80 81 81 82 82 83 83 83 84
27 28 28 29 28 28 28 28 28 29 29 30 30 31 31 31 31 32 33 34 34 35 35 36 36 37 37 38 39 40 41 42 43 44 45 45 46 47 48 49 50 52 53 54 55 56 57 58 59 59 60 61 61 62 62 62 62 62 62 62 62 62 62 62 62 62 62 62 62 63 63 64 65 66 66 67 68 69 70 71 72 72 73 74 75 76 77 78 79 80 81 82 83 83 84 85 85
27 27 28 28 28 28 27 27 27 28 28 28 29 30 29 30 31 32 33 33 34 34 35 36 36 37 38 38 39 40 41 42 43 44 45 46 47 48 49 51 52 53 54 55 56 56 57 58 58 58 58 58 58 57 57 56 56 55 54 54 53 53 53 52 51 51 51 51 52 52 53 54 54 55 56 57 58 59 60 62 63 64 66 67 68 70 71 73 75 76 78 79 81 82 83 84 85
26 26 26 26 26 26 25 25 26 26 27 27 29 29 29 30 31 32 33 33 34 35 36 36 37 37 38 38 39 40 41 42 43 44 46 47 48 49 49 50 51 52 52 53 53 53 53 53 52 52 51 51 50 49 48 47 47 46 46 45 45 45 44 44 43 43 43 43 44 44 45 45 46 47 47 48 49 50 51 52 53 54 55 57 58 60 61 63 65 67 69 71 73 76 78 80 82
22 23 23 24 24 24 24 25 26 26 27 27 28 29 29 30 31 32 33 33 34 35 35 35 36 37 38 39 40 41 42 43 44 44 45 46 46 47 47 47 47 47 47 47 47 46 46 45 45 44 43 42 42 41 41 41 41 41 41 41 41 42 42 42 42 42 42 42 43 43 43 44 44 45 45 46 46 47 48 48 49 50 51 52 53 54 55 56 57 58 60 61 63 65 67 70 73
21 22 22 23 24 24 24 25 26 26 27 27 29 29 29 30 31 31 32 32 32 33 34 35 36 37 38 39 40 40 41 42 42 42 42 42 42 42 42 42 42 42 42 41 41 41 40 40 40 39 39 39 39 39 40 40 40 40 41 41 42 42 42 43 43 43 44 44 45 46 46 46 47 47 48 48 49 49 50 50 51 51 52 53 54 54 55 55 56 57 57 58 58 59 61 63 65
20 22 22 22 23 24 25 25 26 27 28 28 28 28 28 29 29 29 30 31 32 33 34 35 36 37 37 38 38 39 39 39 38 38 38 39 39 39 39 39 39 38 38 38 38 38 38 38 38 39 39 39 39 40 40 40 40 41 41 42 42 43 44 44 45 45 46 47 47 48 48 49 49 50 50 50 51 51 52 53 53 54 54 55 56 56 57 58 58 59 59 60 60 60 61 61 62
22 23 23 24 24 25 25 25 26 26 26 26 26 26 27 28 29 29 30 31 32 33 34 34 35 35 35 36 36 36 35 36 36 36 37 37 37 37 37 37 37 36 37 37 37 38 38 38 39 39 39 40 40 40 40 41 41 41 42 42 43 44 44 45 46 47 47 48 49 49 50 50 51 51 52 52 52 53 53 54 54 55 56 56 57 57 58 59 59 60 61 62 62 63 63 64 64
23 23 24 24 23 23 23 23 24 24 25 25 26 25 26 28 29 29 30 31 32 32 33 33 33 33 33 33 33 34 34 35 35 35 36 36 35 35 35 35 36 36 36 37 37 38 38 38 39 39 39 40 40 40 41 41 41 42 42 43 44 44 45 46 47 48 49 49 50 51 52 52 53 53 54 54 54 55 55 55 56 56 57 57 58 58 59 59 60 61 62 63 63 65 66 66 66
22 22 22 21 21 21 22 22 23 23 24 25 26 26 27 28 29 30 31 31 31 32 32 32 32 32 32 33 33 33 34 34 34 34 34 34 34 34 34 35 35 35 36 36 37 37 38 38 38 39 39 39 40 40 41 41 42 42 43 44 45 46 47 48 49 50 51 52 53 54 54 55 55 56 56 57 57 58 58 58 58 59 59 60 60 60 61 61 61 62 63 64 64 66 67 68 68
19 19 19 20 20 21 21 22 23 24 25 25 26 27 27 28 29 30 30 30 31 31 31 31 32 32 32 32 32 32 32 32 32 32 33 33 33 34 34 34 35 35 35 36 36 37 37 37 38 39 40 40 40 41 42 43 44 44 45 46 47 48 49 50 51 52 54 55 56 56 57 58 59 59 59 60 60 60 61 61 61 62 62 62 63 63 63 63 63 64 65 65 66 67 68 69 70
18 18 19 19 20 21 21 23 24 25 25 26 27 28 27 28 29 29 30 30 30 30 30 31 31 31 32 32 31 31 32 32 32 32 32 33 33 33 34 34 34 35 35 36 37 37 38 38 39 40 41 41 42 43 44 45 46 47 48 49 50 51 52 53 54 55 56 57 59 59 60 61 62 62 62 62 63 63 63 63 64 64 65 65 65 65 66 66 66 66 67 67 68 68 69 70 71
18 18 19 20 20 21 22 23 25 25 26 26 28 28 26 27 28 28 29 29 29 29 29 30 31 31 31 30 31 31 31 31 31 32 32 33 33 33 34 34 35 35 36 36 38 38 38 39 41 42 42 43 44 45 46 47 48 49 50 51 52 53 54 56 57 58 59 60 61 62 63 64 64 65 65 65 65 65 65 66 66 66 67 67 68 68 68 68 68 69 69 69 69 70 71 72 72
18 18 19 20 21 23 23 24 25 26 26 27 28 28 25 26 28 28 29 28 28 29 29 29 30 30 30 30 31 31 31 32 32 32 32 33 33 34 35 35 35 36 37 38 39 39 40 41 42 43 44 45 46 47 48 49 51 52 53 54 55 56 57 58 59 60 62 63 63 64 65 66 66 67 67 67 67 67 67 67 68 68 68 69 69 70 70 70 70 71 71 71 71 71 72 73 74
18 19 20 21 22 23 24 25 25 26 26 27 29 28 24 24 27 28 28 27 27 28 28 29 30 30 30 30 31 32 31 32 32 32 33 33 34 35 36 36 37 37 38 39 41 41 41 43 44 45 46 47 48 49 51 52 53 55 56 57 58 59 60 61 62 63 64 64 65 66 67 68 68 68 69 69 69 69 69 69 69 69 70 70 70 71 71 72 72 72 72 72 72 73 73 74 75
19 20 21 21 23 24 24 25 25 25 25 26 29 29 24 22 26 29 28 26 26 28 28 29 31 30 30 30 31 32 32 32 33 32 34 34 35 37 37 38 39 39 39 41 42 42 43 45 46 47 48 49 50 52 53 54 55 57 58 59 60 61 62 63 63 64 65 66 67 68 68 69 69 69 70 70 70 70 70 70 70 70 70 71 71 71 72 72 73 73 73 73 73 74 74 75 76
19 20 21 22 23 23 24 24 25 25 25 26 29 31 27 22 25 30 29 27 27 28 29 29 31 32 31 31 32 33 33 34 34 34 35 36 37 38 38 39 41 41 42 43 44 45 46 47 48 49 50 51 52 54 55 56 57 58 59 60 61 62 64 65 65 66 66 67 68 68 69 69 70 70 70 70 70 70 70 71 71 71 71 71 72 72 72 73 73 73 73 73 74 74 75 76 77
19 20 21 22 22 23 23 23 24 25 25 27 29 30 29 23 25 31 30 28 29 29 30 30 31 33 32 32 33 34 35 35 36 36 37 39 40 40 41 42 43 43 44 45 46 47 48 49 50 51 52 53 54 55 56 57 58 60 61 62 63 64 65 66 67 67 67 68 69 69 69 70 71 71 71 71 71 71 71 71 71 71 72 72 72 72 73 73 73 73 73 74 74 75 76 77 78
19 20 21 21 22 22 23 23 24 25 25 28 29 30 30 25 25 32 30 29 31 31 31 32 32 33 33 34 35 35 36 36 36 37 38 40 42 42 43 44 45 45 46 48 48 49 50 51 52 52 53 54 55 57 58 59 60 61 62 63 64 65 67 68 68 68 68 69 69 69 70 70 71 71 71 71 71 71 71 72 72 72 72 72 72 72 73 73 73 73 73 74 74 75 76 77 79
20 21 21 22 23 23 24 24 25 25 25 27 29 31 32 27 24 31 33 31 33 33 33 33 33 34 34 34 35 36 37 38 38 38 39 41 43 44 45 46 46 47 49 49 50 51 52 53 53 54 54 55 57 58 60 61 62 62 63 64 65 66 67 68 68 68 69 69 69 70 70 70 71 71 71 71 71 71 71 72 72 72 72 72 72 72 73 73 72 72 73 74 75 76 77 78 79
20 21 22 23 24 23 24 25 26 27 25 27 29 30 34 31 25 28 34 34 35 36 35 35 35 35 35 35 35 36 37 38 40 41 42 44 45 46 47 48 48 50 51 51 52 53 54 54 55 56 56 57 59 60 62 62 63 64 64 65 66 67 68 68 68 69 70 70 70 70 70 71 71 71 71 71 71 71 71 72 72 71 72 72 72 73 73 72 72 72 73 74 75 76 77 79 80
20 21 23 23 24 25 24 25 26 27 27 28 29 30 31 30 27 27 31 33 36 37 36 37 38 38 38 37 36 36 38 40 43 45 46 46 47 47 49 50 50 52 52 53 54 55 55 56 57 58 58 59 60 62 63 63 64 64 65 66 67 68 68 68 69 69 70 70 70 70 71 71 71 71 71 71 71 71 71 71 71 71 71 72 72 73 72 72 72 72 73 74 76 77 78 79 80
20 21 23 24 25 26 25 25 25 26 27 28 29 30 29 27 26 27 28 31 34 36 37 38 39 40 41 41 41 41 42 44 45 47 47 48 49 49 51 51 52 53 53 54 56 57 57 58 59 59 59 60 62 63 63 64 64 65 66 67 67 68 68 69 69 69 69 70 70 70 71 71 71 71 71 71 71 71 71 71 71 71 71 71 72 72 72 72 72 73 74 75 76 78 79 80 81
21 22 24 25 27 28 28 27 26 26 27 28 29 30 29 27 25 25 27 30 33 35 37 39 39 40 43 44 46 45 45 46 47 48 48 49 49 50 51 51 52 53 54 56 57 59 60 60 60 61 60 61 63 63 64 64 65 65 66 67 67 68 69 69 69 69 69 70 70 71 71 71 71 71 71 71 71 71 71 71 71 70 71 71 72 72 72 72 73 73 74 76 77 78 80 81 82
22 23 24 25 27 29 30 30 30 29 28 27 28 28 29 28 23 21 25 29 33 36 39 41 41 42 44 46 47 47 47 48 48 49 48 49 49 50 51 52 52 54 55 56 58 59 61 61 61 62 61 62 64 64 64 65 65 66 66 67 68 68 69 69 69 69 69 70 71 71 71 71 71 71 71 71 71 71 71 71 71 70 71 71 72 72 72 72 73 74 75 77 78 79 80 81 82
22 23 25 27 28 29 31 32 33 33 30 26 26 25 25 25 21 21 27 30 35 39 40 42 43 43 45 46 47 49 49 49 50 50 49 49 50 50 51 52 52 54 55 56 58 59 60 61 61 62 62 62 64 64 64 64 65 66 66 67 68 69 69 69 69 69 70 71 71 71 71 71 72 72 72 71 71 71 71 71 70 70 71 71 72 72 72 73 74 75 76 78 79 80 81 82 83
23 24 25 27 29 30 32 33 33 34 31 26 24 23 21 23 24 25 29 31 34 38 39 40 42 43 45 46 47 49 50 51 52 52 51 50 50 50 50 51 51 53 54 55 56 58 59 60 60 61 61 62 63 63 64 64 65 66 66 68 68 68 68 68 69 70 70 71 71 71 72 72 72 72 72 72 71 71 71 70 70 70 71 71 72 73 73 74 75 76 77 79 80 81 82 83 84
22 23 25 27 28 29 31 34 33 34 34 28 24 23 21 25 28 27 29 31 33 36 38 40 41 42 44 44 45 47 49 51 52 52 52 51 51 51 50 51 51 52 54 55 56 57 59 59 60 61 61 61 62 63 64 64 65 66 67 67 68 68 68 69 69 70 71 71 72 72 73 73 73 73 72 72 72 71 71 70 70 70 71 72 72 73 74 75 76 77 78 80 81 82 83 84 85
23 24 25 27 29 29 30 34 35 36 38 34 29 25 21 24 29 28 30 33 34 37 38 39 41 43 44 45 45 47 48 50 51 52 52 52 53 52 52 52 52 53 54 55 56 57 58 59 60 61 61 61 62 63 63 64 65 66 66 66 67 67 68 69 69 70 71 71 72 72 73 73 73 72 72 71 71 71 70 70 70 71 71 72 73 74 75 75 77 78 80 81 82 84 85 85 86
25 25 26 28 30 31 31 33 35 37 40 39 38 30 21 22 29 30 32 36 37 39 39 40 42 44 46 47 47 48 49 50 50 51 52 52 53 54 54 54 54 54 55 55 56 58 58 59 60 60 61 61 62 62 63 64 65 65 66 66 66 67 68 69 70 70 71 71 72 73 73 73 72 71 71 71 71 70 70 70 70 71 72 72 73 74 75 76 78 79 81 82 83 85 85 86 86
26 27 28 30 32 34 34 34 34 37 40 40 43 36 23 21 31 33 35 39 39 41 42 42 45 46 48 49 49 49 50 50 50 51 52 52 53 54 55 56 56 55 56 56 57 58 58 59 59 60 61 61 62 63 64 64 65 65 65 66 66 67 68 69 70 71 71 72 72 73 72 72 71 71 71 71 70 70 70 70 71 71 72 73 74 75 76 77 79 81 82 83 84 86 86 87 87
28 28 30 32 33 35 38 38 35 36 38 38 43 38 26 24 34 36 37 41 41 42 44 45 47 48 50 51 51 51 52 51 52 53 54 54 54 55 55 56 57 57 57 58 58 59 59 59 60 61 61 61 62 63 64 64 64 65 65 66 67 68 69 70 71 72 72 72 73 72 72 71 70 70 70 70 69 69 69 70 71 71 72 74 75 76 77 78 80 82 83 84 85 86 87 87 88
Wind_Direction
248 250 249 246 244 244 246 246 248 251 253 255 255 255 256 255 255 255 251 244 244 242 239 240 234 224 223 222 226 232 230 226 226 228 229 231 235 240 243 245 249 253 256 259 261 263 265 266 266 265 264 264 263 263 264 264 264 264 265 267 268 268 269 269 269 268 267 267 267 268 269 270 270 269 270 270 270 270 271 271 271 270 270 269 269 269 269 270 271 271 271 269 268 267 265 264 263
248 249 254 253 251 249 248 248 250 254 255 256 258 260 259 258 256 254 250 242 242 243 238 239 240 233 230 231 228 231 234 233 233 234 234 234 236 240 243 246 250 255 259 263 265 266 267 268 268 267 266 266 265 264 265 265 264 265 265 265 265 265 266 267 267 267 267 266 266 267 268 269 269 269 269 269 269 269 269 269 270 270 270 269 268 268 268 269 270 270 271 270 268 267 265 264 262
248 246 251 252 249 247 247 248 252 256 257 258 259 261 260 258 258 256 252 245 239 240 238 237 240 240 239 239 236 234 234 236 238 239 239 240 242 245 248 251 254 258 262 265 267 267 267 267 268 269 269 269 269 268 267 266 266 265 264 263 263 264 265 265 266 266 266 266 266 266 267 268 268 269 268 268 268 268 268 268 268 268 269 269 268 268 268 268 268 269 269 269 269 267 265 264 261
248 246 247 249 248 247 247 248 250 253 255 257 258 256 255 255 257 257 254 250 244 241 242 240 240 242 243 245 245 243 240 239 241 243 245 246 249 251 255 258 260 263 266 268 269 270 270 269 270 272 273 272 272 271 269 268 267 265 264 263 262 262 264 264 265 265 266 266 266 266 267 267 268 269 269 268 268 268 268 268 268 268 268 268 268 268 268 267 267 267 268 268 268 267 265 263 261
245 247 250 251 248 248 249 249 250 252 253 256 257 254 252 253 257 257 252 252 251 250 251 251 249 248 247 249 252 252 248 246 246 248 251 254 256 258 261 264 266 268 269 271 272 273 273 273 274 274 273 272 271 270 269 267 265 264 263 262 262 262 263 264 265 266 266 267 267 267 267 268 268 269 270 270 269 269 269 269 269 269 269 269 269 269 269 268 268 267 267 267 267 267 265 263 261
247 251 255 256 253 252 254 254 253 253 254 255 256 256 255 252 251 253 251 254 257 256 255 254 252 250 250 251 253 255 255 254 253 254 256 259 261 263 265 266 268 270 272 273 275 275 275 274 273 271 269 268 267 265 264 263 262 262 262 263 264 264 265 265 266 267 268 269 269 269 269 270 270 270 271 271 272 271 271 271 270 270 270 270 270 270 270 269 269 268 268 267 267 267 266 264 261
243 248 250 251 251 252 253 253 251 252 254 253 252 254 253 247 243 243 243 246 251 250 247 245 244 244 245 248 251 254 257 258 258 258 259 261 263 264 266 268 269 272 273 274 274 273 273 271 269 267 265 263 262 262 262 263 264 265 265 266 267 268 268 269 271 272 273 273 273 273 273 273 273 273 273 273 274 274 274 273 273 272 272 271 271 271 271 271 270 270 269 268 267 267 266 265 263
228 232 234 236 240 244 245 245 245 248 249 247 245 243 240 238 237 238 238 239 244 246 244 244 244 246 247 249 253 256 258 260 261 261 262 264 267 268 269 271 271 271 271 271 271 270 269 268 267 265 264 264 265 266 267 268 269 270 271 272 272 273 274 274 274 275 276 276 277 277 277 276 275 275 275 275 275 275 275 275 274 274 273 273 272 271 271 270 270 270 269 268 268 267 266 265 264
230 230 222 219 224 232 234 237 240 243 241 238 240 235 232 239 242 240 239 242 244 245 245 248 250 253 255 255 258 260 261 263 263 265 267 269 271 272 272 272 270 269 269 269 269 269 268 267 267 267 268 269 271 272 273 274 274 275 276 277 277 277 278 278 278 278 277 277 278 278 278 278 277 277 276 275 275 275 275 274 274 273 273 273 272 271 270 270 269 269 268 268 267 267 266 265 264
233 239 233 224 222 226 229 232 231 232 240 240 240 238 237 245 249 244 239 241 246 250 252 255 259 261 263 264 266 267 267 269 269 270 273 274 273 273 272 271 270 269 268 268 268 268 268 269 269 270 272 273 275 277 278 279 279 279 280 280 280 280 280 280 280 280 279 279 278 278 278 277 277 277 276 275 275 274 274 274 273 273 272 272 271 271 270 269 269 268 268 267 266 266 266 265 264
229 236 241 238 234 234 236 240 238 233 242 244 242 241 240 241 243 242 239 241 247 254 259 260 263 265 269 272 273 274 275 276 275 275 276 275 274 273 272 271 271 270 268 267 268 269 270 271 272 274 276 278 279 280 281 281 281 282 282 282 282 281 281 280 279 279 278 278 278 277 276 276 275 275 274 274 273 273 273 273 272 272 271 271 270 270 270 269 268 268 267 267 266 265 265 265 264
233 236 242 246 247 247 247 251 248 240 241 245 245 244 243 242 241 242 243 244 247 251 255 258 261 264 267 270 272 274 275 276 276 276 275 274 272 272 271 270 270 270 270 270 271 272 273 274 276 278 279 280 281 281 281 281 281 281 281 281 281 281 280 279 279 278 277 277 276 276 276 275 275 274 274 273 273 272 272 272 272 271 271 270 270 269 269 268 268 267 267 266 266 265 264 264 264
242 242 243 247 249 250 250 249 245 240 239 241 242 243 243 242 241 243 245 246 248 252 256 259 262 265 267 269 271 272 272 273 273 273 273 272 272 272 272 272 272 272 274 274 275 275 277 278 279 280 280 280 280 280 280 280 280 280 280 280 279 279 279 278 278 277 277 277 276 276 276 276 275 275 275 274 274 273 273 272 272 272 271 271 271 270 269 269 268 267 266 266 265 264 263 263 263
248 248 246 248 251 253 253 250 246 244 242 242 241 240 240 241 243 246 249 253 255 258 261 264 266 267 269 270 271 271 271 271 270 271 272 272 273 273 273 273 273 274 276 277 278 278 279 279 279 279 279 279 280 280 279 279 279 279 279 278 278 278 277 277 277 277 277 277 277 277 277 277 277 276 276 276 275 274 274 273 273 272 272 271 271 271 270 269 269 268 267 266 265 264 263 262 262
251 252 251 252 255 257 258 256 254 253 252 252 250 248 248 250 253 255 258 261 262 264 265 267 268 269 270 271 271 271 271 271 271 272 272 273 274 275 275 275 276 277 278 279 280 280 280 280 279 279 279 279 279 279 279 279 279 278 278 278 278 278 278 278 278 278 278 277 277 277 277 277 277 277 276 276 276 275 274 274 273 273 272 271 271 270 270 269 269 268 267 266 265 264 263 263 262
250 251 253 255 258 258 258 258 258 260 259 258 259 258 258 259 260 262 264 266 267 268 269 269 269 270 271 271 271 272 272 273 274 274 275 275 276 276 277 277 278 279 279 280 281 281 281 281 281 281 281 280 280 280 279 279 279 279 279 279 279 279 279 278 278 278 278 277 277 277 277 277 276 276 276 276 276 275 275 274 274 273 272 272 271 270 270 269 268 268 267 267 266 265 264 263 262
260 259 258 257 258 259 260 259 260 262 263 262 263 264 264 264 264 266 267 268 269 269 269 270 271 272 272 272 272 273 274 275 276 277 277 278 278 278 278 279 280 281 281 282 282 282 283 283 283 283 283 283 283 282 282 281 281 281 280 280 280 280 280 279 279 279 279 279 278 278 278 278 278 277 277 277 276 276 276 275 275 274 273 273 272 271 270 270 269 268 267 267 266 265 265 264 263
275 272 269 266 267 266 265 265 266 266 266 266 265 266 266 266 267 268 268 268 269 270 271 272 273 274 274 275 275 276 277 278 279 279 280 280 281 281 282 282 282 283 283 283 283 284 284 284 284 284 284 284 284 284 283 283 283 282 282 281 281 281 281 281 281 281 280 280 280 280 279 279 279 278 278 278 277 277 277 276 276 275 275 274 273 273 272 271 270 269 268 268 267 266 266 265 264
280 278 276 276 275 273 271 270 268 267 266 266 266 266 266 267 268 269 270 271 272 273 274 275 275 275 276 277 277 278 279 279 280 281 281 282 283 283 283 283 283 283 284 284 284 284 283 283 283 283 283 283 284 283 283 283 283 283 283 283 282 282 282 282 282 281 281 281 281 280 280 280 279 279 279 278 278 277 277 277 276 276 276 275 275 274 273 272 271 271 270 269 268 267 266 266 265
279 279 279 279 276 274 272 270 268 266 266 266 266 267 268 270 271 273 274 276 276 277 278 278 278 278 278 279 279 280 280 281 281 282 283 284 284 284 284 284 284 284 284 284 284 283 283 283 283 283 283 283 283 283 284 284 284 284 284 283 283 283 282 282 282 281 281 281 280 280 280 279 279 279 279 278 278 278 278 277 277 277 276 276 276 275 275 274 273 272 271 270 269 268 267 266 266
274 276 277 277 275 275 274 272 271 270 270 270 270 272 273 275 276 277 278 278 279 280 280 281 281 281 281 281 282 282 283 283 283 284 284 284 284 284 285 285 285 285 285 284 284 284 284 284 284 284 284 284 284 284 284 284 284 284 284 283 283 283 282 282 282 281 281 281 280 280 280 280 279 279 279 278 278 278 277 277 277 276 276 276 275 275 275 274 274 273 273 272 271 270 269 268 267
272 273 274 274 275 276 276 276 275 275 274 274 275 276 277 278 279 279 280 280 281 282 282 282 282 282 282 282 283 283 283 284 284 284 283 284 284 284 284 284 284 284 284 285 285 285 285 285 285 285 285 285 285 284 284 284 284 284 284 284 283 283 283 283 282 282 281 281 281 280 280 280 279 279 278 278 278 277 277 277 276 276 276 275 275 275 274 274 273 273 273 272 272 271 271 270 269
272 273 274 274 275 276 276 277 277 277 277 277 277 277 278 278 279 280 280 281 282 283 283 283 283 283 284 284 284 284 284 283 283 284 284 284 284 284 284 284 284 284 284 285 285 285 286 286 286 286 286 285 285 285 285 285 285 285 284 284 284 283 283 283 283 282 282 281 281 281 280 280 279 279 278 278 278 277 277 276 276 276 275 275 275 275 274 274 273 273 272 272 272 271 271 270 270
273 274 274 274 274 274 275 276 276 277 278 279 279 280 280 280 280 280 281 282 282 283 283 283 284 285 285 285 285 285 285 285 285 285 285 285 285 285 285 285 285 286 286 286 287 287 287 287 287 287 287 287 286 286 286 286 286 285 285 284 284 284 283 283 283 282 282 281 281 280 280 279 279 279 278 278 277 277 277 276 276 275 275 275 274 274 274 274 273 273 273 272 272 271 271 270 270
274 275 275 275 275 276 276 277 279 280 280 281 281 281 281 281 281 282 283 283 283 283 284 285 285 286 286 285 286 286 286 286 286 286 286 286 286 287 287 287 288 288 288 288 288 288 288 288 288 288 288 288 287 287 287 286 286 286 285 284 284 284 283 283 282 282 281 281 281 280 280 279 279 278 278 277 277 277 276 276 276 275 275 275 274 274 274 273 273 273 272 272 272 271 271 270 270
277 278 278 278 279 279 280 281 282 282 282 282 282 282 282 282 283 284 285 285 284 285 286 286 286 286 286 286 286 287 287 287 287 288 288 288 288 289 289 290 289 289 289 289 289 289 289 289 289 288 288 288 287 287 287 286 286 285 284 284 283 283 282 282 282 281 281 280 280 280 279 279 279 279 278 278 278 277 277 277 276 276 276 275 275 275 274 274 273 273 273 272 272 272 271 270 270
280 280 280 280 281 281 282 282 283 283 283 283 283 283 283 284 285 286 286 286 286 286 286 286 286 287 287 288 288 289 289 290 290 290 291 291 291 291 291 291 291 291 291 290 290 290 290 290 289 289 288 288 287 287 286 286 285 285 284 284 283 283 283 282 282 281 281 281 281 281 280 280 280 280 280 280 279 279 279 278 278 278 277 277 276 276 275 275 274 274 273 273 272 272 272 271 271
280 280 280 281 282 282 283 283 284 284 283 283 284 284 285 287 287 287 287 287 287 287 287 288 288 289 290 290 291 291 292 292 292 293 293 293 293 293 293 293 292 292 292 292 291 291 290 290 290 289 289 289 288 288 288 287 287 286 286 285 285 285 284 284 284 283 283 283 283 283 283 283 282 282 282 282 281 281 281 280 280 280 279 279 278 278 277 276 276 275 274 274 273 273 272 272 271
280 281 281 282 283 283 284 284 284 283 284 285 285 286 288 289 289 289 289 289 289 289 290 291 291 292 292 293 293 293 293 294 294 294 294 294 294 294 294 294 293 293 293 292 292 292 291 291 291 291 291 291 291 290 290 290 290 289 289 289 289 288 288 289 289 289 289 289 289 289 288 288 288 287 287 286 286 285 285 284 284 283 283 282 282 281 280 280 279 278 277 276 276 275 274 273 273
283 284 284 285 285 285 285 284 284 285 286 288 289 290 291 291 291 291 291 291 292 293 294 294 295 295 295 295 295 295 296 295 295 295 295 295 295 295 294 294 294 294 293 293 293 294 294 294 294 294 294 294 294 293 293 293 293 293 294 294 294 295 296 296 296 296 296 296 296 295 295 295 294 294 293 293 292 292 291 291 290 289 289 288 287 286 285 285 284 283 282 281 280 279 278 277 276
286 287 288 288 287 287 288 287 289 290 290 291 291 292 293 293 292 292 292 293 294 295 296 297 297 297 297 297 297 297 296 296 296 296 296 295 295 295 295 295 295 295 296 296 296 296 296 296 296 297 296 296 296 296 297 297 297 298 298 299 299 300 300 300 301 300 300 300 299 299 298 298 298 297 297 297 296 296 295 295 294 293 293 292 291 290 290 289 288 288 287 286 285 284 283 282 280
289 288 288 287 288 289 290 291 293 293 292 293 293 293 294 293 293 294 295 296 296 297 297 297 297 297 297 297 296 296 296 296 296 296 296 296 296 296 296 297 297 298 298 298 298 298 298 298 298 298 298 298 298 299 299 300 301 301 302 302 302 302 302 302 302 301 301 300 300 299 299 299 298 298 298 297 297 296 296 295 294 294 293 293 292 292 291 291 290 290 290 289 289 288 288 287 286
290 289 289 290 291 292 292 293 294 293 293 294 293 295 296 295 296 297 297 297 298 297 297 296 296 296 296 296 296 296 297 297 297 297 298 298 298 298 298 299 299 299 298 298 298 298 298 298 299 299 299 300 300 301 301 302 302 303 303 303 302 302 302 302 301 301 301 300 300 299 299 298 298 297 297 296 296 295 295 294 294 293 293 293 292 292 291 291 291 291 290 290 290 289 289 289 288
291 290 292 292 292 293 294 294 294 294 294 294 295 296 297 297 298 298 298 298 298 297 296 296 296 296 296 296 297 297 297 297 297 298 298 298 298 299 299 299 299 299 299 299 300 300 300 300 301 301 302 303 303 303 303 303 303 303 303 303 303 302 302 301 301 301 300 300 299 299 298 298 297 296 296 295 295 294 294 294 293 293 293 292 292 292 292 292 291 291 291 291 290 290 289 289 288
292 293 293 293 294 295 295 294 294 294 294 295 296 297 298 297 298 298 298 298 297 297 297 297 297 297 297 297 297 297 297 297 297 297 298 298 299 299 299 299 300 300 300 301 301 302 303 303 304 304 305 305 305 305 305 305 305 304 304 304 303 303 302 302 301 301 300 299 299 298 297 297 296 296 295 295 295 294 294 293 293 293 293 292 292 292 292 292 292 292 292 292 291 290 290 289 289
295 295 295 295 296 296 295 294 294 294 294 296 297 298 298 298 299 299 298 298 298 298 299 299 298 298 298 298 298 298 298 298 298 298 299 299 299 299 300 300 301 301 302 302 303 304 305 305 306 306 306 306 306 306 306 306 306 305 305 305 304 303 302 302 301 300 300 299 298 298 297 297 296 296 296 295 295 294 294 294 293 293 293 293 293 293 293 293 293 293 293 293 293 292 292 291 290
296 295 296 295 295 295 294 294 294 295 296 298 298 299 299 300 300 300 300 300 301 301 301 301 300 300 300 299 299 299 299 299 300 300 300 300 300 300 301 301 302 303 303 305 305 306 306 307 307 307 307 307 306 306 307 306 306 305 305 304 303 303 302 301 301 300 300 299 299 298 298 297 297 296 296 295 295 295 294 294 294 293 293 293 293 293 293 294 294 294 294 294 294 294 294 293 292
295 295 295 295 295 295 295 296 297 297 298 299 299 300 302 302 301 302 302 303 304 304 303 303 302 302 301 301 301 301 301 301 301 300 300 301 301 301 302 303 303 304 305 306 306 306 307 307 307 307 307 307 307 307 306 306 305 305 304 304 303 302 302 301 301 301 300 300 300 299 299 298 297 297 296 296 295 295 295 295 294 294 293 293 293 293 293 293 293 294 294 295 295 295 295 294 293
297 296 296 297 297 298 298 299 299 300 300 301 300 302 305 305 304 304 304 306 306 305 305 304 303 302 302 302 302 301 301 301 301 301 301 302 302 303 303 304 305 305 306 306 306 306 307 307 306 306 306 306 306 306 305 305 304 304 303 303 303 302 302 302 301 301 301 300 300 300 299 298 298 297 297 296 296 296 296 295 295 294 294 293 293 293 293 293 293 294 294 295 295 296 296 295 295
299 299 299 300 301 300 301 301 301 302 302 302 301 303 307 307 305 305 305 308 308 306 306 304 302 302 302 303 302 302 302 302 301 301 302 302 303 303 304 305 305 305 306 306 305 306 306 305 305 305 305 305 305 305 304 304 303 303 303 303 303 302 302 302 301 301 301 300 300 299 298 298 298 298 297 297 297 296 296 296 296 295 295 294 294 293 293 293 293 293 294 294 295 295 296 296 296
301 301 302 303 303 302 302 302 303 303 304 304 302 302 308 309 306 305 307 310 309 307 307 304 302 303 304 304 303 303 303 302 302 302 302 303 304 304 305 305 305 305 306 305 304 305 305 304 304 304 305 304 304 304 304 303 303 303 303 303 303 302 302 302 301 301 301 300 300 299 299 299 298 298 298 298 297 297 297 297 296 296 296 295 295 294 293 293 293 293 293 294 295 295 296 297 297
302 303 304 304 303 303 302 303 303 304 305 305 303 303 309 314 309 305 308 311 310 308 306 304 303 304 305 305 304 303 303 302 302 302 302 303 304 304 305 305 304 305 305 303 304 304 303 304 304 304 304 304 304 304 303 303 303 303 303 303 303 302 302 301 301 301 301 301 300 300 300 300 299 299 298 298 298 298 298 298 297 297 296 296 295 294 293 292 292 292 293 293 294 295 296 297 297
305 305 305 303 303 302 302 303 304 304 306 306 304 305 310 318 313 307 309 312 310 308 306 305 305 305 306 305 304 304 303 302 302 303 303 304 304 305 305 304 304 304 304 303 303 303 303 304 304 303 303 303 303 303 302 303 303 302 302 303 303 302 302 301 301 301 301 301 301 301 301 300 300 299 299 299 299 298 298 298 297 297 296 296 295 294 293 292 292 292 293 293 295 296 297 297 298
306 305 304 303 302 302 303 305 305 306 308 307 306 306 310 319 315 307 310 312 309 308 306 306 306 306 306 306 305 304 304 303 303 303 304 305 305 306 306 305 305 305 304 303 303 303 303 303 302 302 302 302 302 302 302 302 302 302 302 302 302 302 302 301 301 302 302 301 301 301 301 300 300 299 299 299 298 298 298 298 297 297 296 295 295 294 293 293 292 292 293 294 295 297 297 298 299
305 303 304 303 303 305 305 306 306 307 310 308 307 308 310 319 317 308 309 311 309 308 306 306 306 305 305 305 305 304 303 303 303 302 302 303 304 305 305 305 306 305 303 302 302 302 302 301 301 301 301 301 301 301 301 301 301 301 302 302 302 302 301 301 302 302 301 300 300 300 300 300 299 299 299 298 298 298 297 297 296 296 296 295 295 294 294 293 293 293 294 295 296 297 298 299 300
305 305 306 305 306 307 307 307 307 308 310 308 309 310 310 318 321 311 311 313 309 307 307 307 306 304 303 304 304 304 303 304 303 302 302 303 304 305 305 306 306 304 303 303 303 302 300 299 299 300 300 299 299 299 299 300 300 301 301 301 301 301 301 302 302 301 300 300 300 300 300 300 299 299 298 298 297 297 297 296 296 296 295 295 295 294 294 294 294 294 295 296 298 298 299 300 300
308 309 308 308 308 308 308 308 308 309 311 309 309 311 311 319 325 316 313 314 309 307 308 307 305 303 303 303 304 303 303 304 304 303 304 304 304 305 305 305 305 303 302 303 302 300 299 298 298 298 299 298 299 299 299 299 300 300 301 301 301 301 301 302 302 301 300 300 300 300 299 299 299 298 298 297 297 297 296 296 296 295 295 295 295 295 295 295 295 296 297 298 298 299 299 300 301
312 311 310 309 308 308 309 309 309 310 312 311 312 315 319 326 329 321 315 312 307 307 307 306 305 306 306 307 307 306 304 304 303 304 304 304 305 305 304 304 303 302 302 302 301 299 298 297 297 297 298 298 298 298 299 299 300 300 300 300 300 301 301 301 301 301 300 300 299 299 299 299 298 298 297 297 297 297 296 296 295 296 296 296 296 296 296 296 297 297 298 299 299 299 300 301 302
315 314 312 311 311 310 311 311 312 314 316 319 321 323 327 332 330 323 314 306 303 305 305 305 307 308 309 311 311 309 306 305 304 305 305 306 306 306 304 304 303 302 301 301 299 298 297 297 297 297 297 298 298 299 299 299 300 300 300 300 301 301 301 301 301 301 300 300 299 299 299 299 298 298 297 297 297 297 296 296 296 296 296 296 296 296 297 298 298 298 299 299 300 300 301 302 303
319 317 315 315 315 316 317 318 321 324 326 330 330 329 332 335 334 323 310 304 303 304 305 307 311 311 311 311 310 309 308 307 307 307 308 308 307 306 304 303 302 301 300 299 298 297 297 298 297 297 298 299 299 299 299 300 300 300 300 301 301 301 301 301 301 301 300 299 299 299 299 299 298 298 298 298 297 297 297 296 296 296 296 296 296 297 298 299 299 299 300 300 300 301 302 303 303
324 322 320 320 320 321 322 323 326 329 334 338 336 336 336 336 335 321 309 307 307 308 310 313 315 312 310 310 309 309 309 308 308 307 307 306 305 304 303 303 301 300 299 298 298 298 298 297 297 298 299 299 299 299 300 300 300 300 301 302 302 302 302 302 301 301 300 299 299 299 299 299 298 298 298 298 298 297 297 297 297 297 297 297 297 298 299 300 300 300 300 301 301 302 303 304 304
329 327 325 324 324 325 324 326 328 329 336 344 344 345 340 332 328 315 310 311 311 314 317 317 317 316 314 313 311 311 310 309 307 306 306 306 305 305 304 303 302 301 300 299 298 298 297 298 298 299 300 299 300 300 300 300 301 301 302 302 302 302 302 302 302 301 300 300 300 300 299 299 298 298 298 298 298 297 297 297 297 297 297 297 298 299 300 300 300 301 301 301 302 303 304 304 304
334 330 328 326 327 328 326 327 329 328 333 343 347 350 339 323 323 322 319 318 317 320 322 323 324 324 322 319 315 313 311 309 308 308 308 308 308 308 307 306 304 302 301 300 299 299 299 300 301 300 300 300 301 301 301 301 302 302 302 302 303 303 303 302 302 301 301 301 301 300 300 299 299 298 298 298 298 297 297 297 298 298 298 298 299 300 300 301 301 301 302 302 303 304 304 304 304
337 333 329 327 328 330 327 327 329 327 329 337 345 351 340 320 324 332 328 323 323 324 327 329 330 328 326 324 320 317 315 313 313 312 312 311 310 310 309 307 306 304 303 303 302 302 302 302 302 301 301 302 301 301 302 303 303 303 303 303 303 303 303 303 302 302 302 301 301 301 300 299 299 299 299 298 298 298 298 298 298 299 299 299 300 301 301 301 301 302 302 303 303 304 304 305 304
340 336 331 327 327 328 327 327 328 326 326 331 336 347 346 325 326 333 328 325 325 327 331 332 330 328 326 326 325 323 321 319 318 316 314 313 311 311 310 308 308 307 306 305 304 303 303 303 302 303 303 302 302 302 303 303 303 303 303 304 304 304 304 303 303 303 302 302 301 301 300 300 300 300 299 298 298 298 298 298 299 299 299 299 300 301 301 301 302 302 303 303 304 304 305 305 304
340 336 330 327 325 325 326 327 328 325 325 328 329 339 351 329 323 329 327 325 326 327 330 330 328 327 326 325 325 324 324 322 320 318 315 313 312 311 310 310 309 308 307 306 305 304 304 304 304 304 303 303 303 304 303 303 303 304 304 305 305 305 304 304 303 303 302 302 301 300 300 300 300 300 299 298 298 298 299 299 299 299 299 300 301 301 302 302 302 302 303 304 304 304 305 305 304
338 334 329 326 324 323 323 325 327 324 325 327 324 334 356 333 319 327 327 323 323 324 327 327 326 326 325 324 324 323 322 321 320 317 315 314 313 312 312 311 310 309 308 307 307 306 306 305 305 304 304 304 304 304 303 303 304 305 306 306 305 305 305 304 303 303 302 301 301 301 301 300 300 299 299 298 298 299 299 299 299 299 300 301 301 302 302 302 302 303 303 304 304 305 305 305 305
338 333 328 325 323 321 319 321 324 322 324 326 319 327 357 341 321 327 326 319 320 322 323 324 324 324 323 323 323 322 321 320 318 317 316 316 316 314 313 312 311 311 310 309 308 308 307 306 305 305 305 305 304 303 303 304 305 306 306 306 306 306 305 304 303 303 302 301 301 301 300 300 300 299 298 298 299 299 299 299 299 300 300 301 302 302 302 302 303 303 304 304 305 305 305 305 305